GW3530 Weather Reports


Display with metric or nautical units.
time (UTC)temp
F
wind
direction
speed
MPH
gust
MPH
rain 1hr
in
rain 24hr
in
rain mn
in
humidity
%
barometer
mb
20260504044546 55 39 24.0 38.0 0.00 0.00 0.00 36 1005.9
20260504043046 56 32 18.0 29.0 0.00 0.00 0.00 40 1005.1
20260504041547 56 13 12.0 17.0 0.00 0.00 0.00 39 1004.7
20260504040056 57 36 11.0 17.0 0.00 0.00 0.00 38 1004.2
20260504034556 57 40 12.0 16.0 0.00 0.00 0.00 37 1003.9
20260504033116 58 30 15.0 18.0 0.00 0.00 0.00 36 1003.6
20260504031605 59 27 15.0 19.0 0.00 0.00 0.00 35 1003.4
20260504030004 59 42 12.0 16.0 0.00 0.00 0.00 33 1003.1
20260504024533 61 40 8.0 14.0 0.00 0.00 0.00 30 1003.0
20260504023055 62 21 14.0 19.0 0.00 0.00 0.00 28 1003.0
20260504021600 65 355 7.0 11.0 0.00 0.00 0.00 24 1002.8
20260504021502 65 5 7.0 11.0 0.00 0.00 0.00 23 1002.8
20260504020011 68 355 10.0 17.0 0.00 0.00 0.00 21 1003.0
20260504014513 70 344 14.0 19.0 0.00 0.00 0.00 19 1002.9
20260504013017 72 343 13.0 20.0 0.00 0.00 0.00 19 1002.9
20260504011516 73 335 15.0 24.0 0.00 0.00 0.00 19 1003.0
20260504010017 74 349 15.0 21.0 0.00 0.00 0.00 18 1003.1
20260504004537 74 346 16.0 24.0 0.00 0.00 0.00 18 1003.1
20260504003025 74 344 18.0 25.0 0.00 0.00 0.00 18 1003.3
20260504001526 75 333 20.0 26.0 0.00 0.00 0.00 17 1003.4
20260504000032 76 336 13.0 22.0 0.00 0.00 0.00 18 1003.4
20260503234538 76 333 10.0 23.0 0.00 0.00 0.00 18 1003.4
20260503233044 76 343 17.0 22.0 0.00 0.00 0.00 17 1003.5
20260503231553 77 313 15.0 23.0 0.00 0.00 0.00 17 1003.6
20260503230052 77 290 13.0 21.0 0.00 0.00 0.00 17 1003.6
20260503224552 78 343 14.0 20.0 0.00 0.00 0.00 18 1003.7
20260503223058 77 338 18.0 26.0 0.00 0.00 0.00 18 1004.0
20260503221600 77 311 18.0 24.0 0.00 0.00 0.00 18 1004.2
20260503221501 77 318 14.0 23.0 0.00 0.00 0.00 18 1004.2
20260503220004 77 321 17.0 22.0 0.00 0.00 0.00 18 1004.4
20260503214505 76 306 9.0 24.0 0.00 0.00 0.00 18 1004.5
20260503213016 77 323 15.0 24.0 0.00 0.00 0.00 17 1004.7
20260503211515 76 315 13.0 20.0 0.00 0.00 0.00 17 1005.1
20260503210019 76 300 15.0 21.0 0.00 0.00 0.00 17 1005.3
20260503204524 76 313 19.0 23.0 0.00 0.00 0.00 17 1005.5
20260503203029 76 321 16.0 24.0 0.00 0.00 0.00 17 1005.8
20260503201536 75 305 11.0 23.0 0.00 0.00 0.00 17 1005.8
20260503200040 75 331 14.0 22.0 0.00 0.00 0.00 17 1005.9
20260503194549 73 237 10.0 23.0 0.00 0.00 0.00 17 1006.1
20260503193049 74 293 13.0 20.0 0.00 0.00 0.00 19 1006.4
20260503191545 73 298 11.0 24.0 0.00 0.00 0.00 18 1006.5
20260503190056 74 292 10.0 22.0 0.00 0.00 0.00 20 1006.8
20260503184607 73 239 11.0 23.0 0.00 0.00 0.00 21 1007.0
20260503183103 73 267 19.0 25.0 0.00 0.00 0.00 20 1007.2
20260503183001 73 293 17.0 25.0 0.00 0.00 0.00 21 1007.2
20260503181506 73 310 13.0 23.0 0.00 0.00 0.00 21 1007.5
20260503180012 73 253 10.0 19.0 0.00 0.00 0.00 23 1007.7
20260503174517 72 290 10.0 17.0 0.00 0.00 0.00 23 1007.7
20260503173022 72 273 11.0 23.0 0.00 0.00 0.00 23 1007.9
20260503171523 69 276 9.0 17.0 0.00 0.00 0.00 32 1008.1
20260503100128 45 265 12.0 15.0 0.00 0.00 0.00 73 1010.6
20260503081538 44 297 10.0 11.0 0.00 0.00 0.00 69 1011.2